This demonstration page uses our WeatherBlox Daily Observations layout. Learn more.

Left ArrowRight Arrow

38.80484, -77.04692

Hourly Observations for November 26, 2020

Temp ( °F °C ) Dew Point ( °F °C ) Humidity (%) Winds ( mph kmh ) Pressure ( in mb ) Visibility ( mi km ) Precip ( " mm )
12:52 am 00:52 Cloudy with Light Rain 54 12.2 51 10.6 90 90 SSW 5 7 30.09 1019 9 14.48406 0.001 0.001
1:52 am 01:52 Cloudy with Light Rain 53 11.7 51 10.6 93 93 S 6 9 30.06 1018 10 16.0934 0.01 0.254
2:52 am 02:52 Cloudy with Light Rain 54 12.2 52 11.1 93 93 SSW 5 7 30.04 1017 8 12.87472 0.01 0.254
2:55 am 02:55 Cloudy with Rain 54 12.2 52 11.1 93 93 SW 5 7 30.05 1018 6 9.65604 0.01 0.254
3:52 am 03:52 Cloudy 54 12.2 53 11.7 97 97 SSE 3 6 30.03 1017 10 16.0934 0.01 0.254
4:52 am 04:52 Cloudy 55 12.8 54 12.2 96 96 S 6 9 30.01 1016 10 16.0934 0 0
5:14 am 05:14 Cloudy 55 12.8 54 12.2 96 96 S 7 11 30 1016 10 16.0934 0 0
5:52 am 05:52 Cloudy 54 12.2 53 11.7 97 97 SSW 7 11 30 1016 10 16.0934 0 0
6:24 am 06:24 Cloudy 55 12.8 53 11.7 93 93 S 10 17 29.99 1016 9 14.48406 0 0
6:52 am 06:52 Mostly Cloudy 59 15 56 13.3 90 90 SW 9 15 30 1016 10 16.0934 0 0
7:33 am 07:33 Cloudy 61 16.1 58 14.4 90 90 SSW 10 17 30 1016 10 16.0934 0 0
7:52 am 07:52 Mostly Cloudy 61 16.1 58 14.4 90 90 SSW 12 19 29.99 1016 10 16.0934 0 0
8:52 am 08:52 Cloudy 63 17.2 59 15 87 87 SW 13 20 30.02 1017 10 16.0934 0 0
9:06 am 09:06 Cloudy 63 17.2 59 15 87 87 WSW 10 17 30.03 1017 10 16.0934 0 0
9:32 am 09:32 Cloudy 63 17.2 59 15 87 87 WSW 10 17 30.03 1017 10 16.0934 0 0
9:52 am 09:52 Cloudy 63 17.2 58 14.4 84 84 W 7 11 30.04 1017 10 16.0934 0 0
10:52 am 10:52 Mostly Cloudy 63 17.2 57 13.9 81 81 WNW 12 19 30.04 1017 10 16.0934 0 0
11:02 am 11:02 Partly Cloudy 62 16.7 56 13.3 80 80 WNW 9 15 30.04 1017 10 16.0934 0 0
11:52 am 11:52 Mostly Sunny 65 18.3 56 13.3 73 73 W 6 9 30.01 1016 10 16.0934 0 0
12:52 pm 12:52 Mostly Sunny 66 18.9 56 13.3 70 70 ENE 3 6 30 1016 10 16.0934 0 0
1:52 pm 13:52 Mostly Sunny 67 19.4 55 12.8 66 66 E 3 6 29.99 1016 10 16.0934 0 0
2:52 pm 14:52 Partly Cloudy 66 18.9 54 12.2 65 65 E 3 6 29.99 1016 10 16.0934 0 0
3:52 pm 15:52 Partly Cloudy 65 18.3 54 12.2 68 68 E 3 6 29.99 1016 10 16.0934 0 0
4:52 pm 16:52 Partly Cloudy 64 17.8 52 11.1 65 65 Calm 30.01 1016 10 16.0934 0 0
5:52 pm 17:52 Partly Cloudy 61 16.1 48 8.9 63 63 N 12 19 30.04 1017 10 16.0934 0 0
6:52 pm 18:52 Mostly Clear 58 14.4 46 7.8 65 65 N 8 13 30.06 1018 10 16.0934 0 0
7:52 pm 19:52 Mostly Clear 56 13.3 45 7.2 67 67 N 8 13 30.07 1018 10 16.0934 0 0
8:52 pm 20:52 Mostly Clear 54 12.2 44 6.7 69 69 N 8 13 30.08 1019 10 16.0934 0 0
9:52 pm 21:52 Mostly Clear 55 12.8 44 6.7 67 67 N 3 6 30.09 1019 10 16.0934 0 0
10:52 pm 22:52 Mostly Cloudy 51 10.6 47 8.3 86 86 N 6 9 30.09 1019 10 16.0934 0 0
11:52 pm 23:52 Mostly Cloudy 53 11.7 46 7.8 77 77 NNW 3 6 30.1 1019 10 16.0934 0 0

Powered by AerisWeather